This is the latest recevied weather packets stored in our database for station/object SV7GBF-2. If no packets are shown the sender has not sent any weather packets the latest 10 day(s).
| Time | Temp. | Humidity | Pressure | Rain* | Wind** | Luminosity | Snow |
|---|---|---|---|---|---|---|---|
| 1788461047 | 25.56° C | 54% | 1015 hPa | - | - | - | - |
| 1788460445 | 26.11° C | 50% | 1014 hPa | - | - | - | - |
| 1788459845 | 26.11° C | 50% | 1014 hPa | - | - | - | - |
| 1788457446 | 26.67° C | 48% | 1014 hPa | - | - | - | - |
| 1788456247 | 26.67° C | 47% | 1013 hPa | - | - | - | - |
| 1788455645 | 27.22° C | 47% | 1013 hPa | - | - | - | - |
| 1788454445 | 27.78° C | 41% | 1013 hPa | - | - | - | - |
| 1788453848 | 27.78° C | 46% | 1013 hPa | - | - | - | - |
| 1788453245 | 27.78° C | 47% | 1014 hPa | - | - | - | - |
| 1788452648 | 27.78° C | 44% | 1014 hPa | - | - | - | - |
| 1788452045 | 27.78° C | 43% | 1014 hPa | - | - | - | - |
| 1788450249 | 28.33° C | 39% | 1014 hPa | - | - | - | - |
| 1788449645 | 28.89° C | 38% | 1014 hPa | - | - | - | - |
| 1788449045 | 28.33° C | 37% | 1014 hPa | - | - | - | - |
| 1788447847 | 28.89° C | 31% | 1014 hPa | - | - | - | - |
| 1788447247 | 30.56° C | 29% | 1014 hPa | - | - | - | - |
| 1788446647 | 30° C | 30% | 1014 hPa | - | - | - | - |
| 1788444846 | 30° C | 28% | 1014 hPa | - | - | - | - |
| 1788444245 | 30.56° C | 28% | 1014 hPa | - | - | - | - |
| 1788443645 | 31.11° C | 28% | 1013 hPa | - | - | - | - |
| 1788443046 | 30.56° C | 28% | 1013 hPa | - | - | - | - |
| 1788442445 | 30.56° C | 28% | 1014 hPa | - | - | - | - |
| 1788441845 | 30.56° C | 28% | 1014 hPa | - | - | - | - |
| 1788441246 | 30.56° C | 29% | 1014 hPa | - | - | - | - |
| 1788440645 | 30.56° C | 27% | 1014 hPa | - | - | - | - |
* Rain since midnight (hover to see other rain measurements)
** Current wind speed in m/s (hover to see current wind gust speed)